Tracking 18794 objects as of 22-September-2017
HD Live streaming from Space Station
objects crossing your sky now

NAVSTAR 75 (USA 265)

Track NAVSTAR 75 (USA 265) now!
NAVSTAR 75 (USA 265) is classified as:


NORAD ID: 41019
Int'l Code: 2015-062A
Perigee: 20,114.0 km
Apogee: 20,264.7 km
Inclination: 55.0 °
Period: 718.0 minutes
Semi major axis: 26560 km
RCS: Unknown
Launch date: October 31, 2015
Source: United States (US)
Launch site: AIR FORCE EASTERN TEST RANGE (AFETR)
PRN: 10

NAVSTAR 75 (USA 265), also known as GPS IIF-11 is a navigation satellite deployed in Plane E of the GPS constellation.
aabbcc
Your satellite tracking list
Your tracking list is empty





NASA's NSSDC Master Catalog

Two Line Element Set (TLE):
1 41019U 15062A   17262.37419037 -.00000007  00000-0  00000+0 0  9998
2 41019  55.0208 156.5454 0028365 200.9964 158.9507  2.00563776 13792
Source of the keplerian elements: AFSPC